Location: *
(58.4167°N, 22.5000°E)
Time: 04:21:36
(UTC+00:00)

Cosmos 2058 - Pass Details

Date: 22 September 2019
Orbit: 563 x 583 km, 82.5° (Epoch: 16 October)

Event Time Altitude Azimuth Distance (km) Brightness Sun altitude
Rises 20:49:23 0° 347° (NNW) 2,790 7.6 -28.6°
Reaches altitude 10° 20:51:34 10° 348° (NNW) 1,891 6.4 -28.7°
Enters shadow 20:54:09 37° 354° (N) 909 4.3 -28.9°
